Flag for Canada Weather past 2 weeks in Rae-Edzo, Northwest Territories, Canada

Now
5 °F

Frigid.


Feels Like: -8 °F
Forecast: 3 / 12 °F
Wind: 8 mph from East

Location: Lac La Martre

Current Time: Mar 31, 2015 at 12:07:40 PM

Latest Report: Mar 31, 2015 at 11:00 AM


Visibility: N/A

Pressure: 30.01 "Hg

Humidity: 64%

Dew point: -5 °F

Location of Rae-EdzoLocation

Historic Weather in Rae-Edzo — Graph

°F

Rae-Edzo temperature yesterday

Maximum temperature yesterday: 32 °F (at 4:00 PM)
Minimum temperature yesterday: 15 °F (at 8:00 AM)
Average temperature yesterday: 24 °F

Past Weeks' High & Low Weather Summary

 TemperatureHumidityPressure
High41 °F (Mar 27, 6:00 PM)94% (Mar 26, 9:00 AM)30.53 "Hg (Mar 26, 9:00 AM)
Low-28 °F (Mar 17, 1:00 AM)31% (Mar 21, 1:00 PM)29.50 "Hg (Mar 27, 5:00 PM)
Average10 °F63%30.13 "Hg
* Reported Mar 16 10:00 AM — Mar 31 10:00 AM, Rae-Edzo, Weather by CustomWeather, © 2015

Note: Actual official high and low records may vary slightly from our data, if they occured in-between our weather recording intervals... More about our weather records

Advertising

Rae-Edzo weather history for previous 24 hours

 ConditionsComfort  
Time TempWeatherWind HumidityBarometerVisibility
10:00 AM
Tue, Mar 31
2 °FFrigid.7 mph70%30.01 "HgN/A
9:00 AM2 °FFrigid.3 mph70%30.02 "HgN/A
8:00 AM-1 °FFrigid.6 mph78%30.00 "HgN/A
7:00 AM1 °FFrigid.7 mph79%30.00 "HgN/A
6:00 AM2 °FFrigid.7 mph79%29.98 "HgN/A
5:00 AM4 °FFrigid.7 mph78%29.97 "HgN/A
4:00 AM5 °FFrigid.6 mph78%29.95 "HgN/A
3:00 AM8 °FFrigid.8 mph78%29.94 "HgN/A
2:00 AM11 °FCold.6 mph79%29.94 "HgN/A
1:00 AM14 °FCold.7 mph74%29.93 "HgN/A
12:00 AM17 °FCold.8 mph73%29.91 "HgN/A
11:00 PM
Mon, Mar 30
19 °FCold.7 mph78%29.89 "HgN/A
10:00 PM21 °FCold.7 mph81%29.89 "HgN/A
9:00 PM21 °FCold.5 mph82%29.89 "HgN/A
8:00 PM24 °FCold.9 mph78%29.88 "HgN/A
7:00 PM27 °FChilly.9 mph70%29.87 "HgN/A
6:00 PM30 °FChilly.8 mph64%29.85 "HgN/A
5:00 PM31 °FChilly.9 mph61%29.84 "HgN/A
4:00 PM32 °FChilly.6 mph64%29.82 "HgN/A
3:00 PM30 °FChilly.7 mph66%29.82 "HgN/A
2:00 PM30 °FChilly.6 mph73%29.81 "HgN/A
1:00 PM28 °FChilly.5 mph73%29.80 "HgN/A
12:00 PM26 °FChilly.6 mph79%29.79 "HgN/A
Weather by CustomWeather, © 2015

See weather overviewHow to use our weather pages